星链-2064 (STARLINK-2064 )

导读 | 豆包AI

STARLINK-2064是美国太空探索技术公司(SpaceX)星链星座的卫星,于2021年2月16日发射升空,旨在构建全球卫星互联网星座,为全球提供高速宽带服务。它属于星链低轨卫星,采用OneWeb分离技术,通过多星组网实现全球覆盖,支撑卫星互联网通信服务。

Basic Information
目录编号:
47671
目录名称:
STARLINK-2064
国际标识:
2021-012BD
轨道中心:
EARTH
卫星名称:
星链-2064
卫星全名:
星链-2064 (STARLINK-2064 )
卫星状态:
已陨落 最后检测时间 2025-01-21
发射日期:
2021-02-16 UTC
国别 :
美国 (US)
星等 :
--
Orbit Information
数据来源 国际轨道数据
星历时间: 2025-01-22T06:40:55+0800
轨道信息已过期488天
半长轴: 6533.037km
偏心率: 0.0003086
轨道倾角: 53.044°
近地点辐角 327.836°
升交点赤经 76.038°
平近点角 109.820°
近地点: 152.885km
远地点: 156.919km
周期: 87.586分钟
每日圈数: 16.441073
Detailed Information
固有亮度:
5
最大亮度:
2.5
卫星平台:
Starlink V1.0
覆盖范围:
全球
运营商:
太空探索技术公司
运营商所在国:
美国
制造商(研发单位):
太空探索技术公司
制造商所在国:
美国
使用方式:
暂无
Satellite Introduction
星链(Starlink)计划是由太空探索技术公司(SpaceX)提出的一个巨型低轨卫星互联网星座项目,计划在2019年至2024年间在太空搭建由约1.2万颗卫星组成的“星链”网络,其中1584颗将部署在地球上空550千米处的近地轨道,并从2020年开始工作。该卫星仍在工作。